timestamp,surface_pressure_avg,surface_temp_avg,battery_voltage,lat,long
2019-02-14 00:00:00+00:00,220.4431,0.09,12.89,47.84626,-54.09684
2019-02-14 00:10:00+00:00,229.8631,0.09,12.81,47.84626,-54.09684
2019-02-14 00:20:00+00:00,233.2614,0.1,12.97,47.84626,-54.09684
2019-02-14 00:30:00+00:00,228.4681,0.08,12.97,47.84626,-54.09684
2019-02-14 00:40:00+00:00,230.1481,0.01,12.97,47.84626,-54.09684
2019-02-14 00:50:00+00:00,235.2397,0.03,12.97,47.84626,-54.09684
2019-02-14 01:00:00+00:00,235.1664,0.0,12.89,47.84626,-54.09684
2019-02-14 01:10:00+00:00,231.0248,0.0,12.81,47.84626,-54.09684
2019-02-14 01:20:00+00:00,233.7081,-0.0,12.89,47.84626,-54.09684
2019-02-14 01:30:00+00:00,238.8581,-0.01,12.89,47.84626,-54.09684
2019-02-14 01:40:00+00:00,237.9164,0.0,12.97,47.84626,-54.09684
2019-02-14 01:50:00+00:00,236.3931,0.0,12.97,47.84626,-54.09684
2019-02-14 02:00:00+00:00,244.5164,0.0,12.89,47.84626,-54.09684
2019-02-14 02:10:00+00:00,245.5598,-0.03,12.81,47.84626,-54.09684
2019-02-14 02:20:00+00:00,238.2297,-0.1,12.89,47.84626,-54.09684
2019-02-14 02:30:00+00:00,245.1331,-0.1,12.89,47.84626,-54.09684
2019-02-14 02:40:00+00:00,259.6097,-0.05,12.89,47.84626,-54.09684
2019-02-14 02:50:00+00:00,262.8231,0.0,12.97,47.84626,-54.09684
2019-02-14 03:00:00+00:00,262.6064,0.0,12.81,47.84626,-54.09684
2019-02-14 03:10:00+00:00,274.8064,-0.1,12.73,47.84626,-54.09684
2019-02-14 03:20:00+00:00,286.4597,-0.08,12.89,47.84626,-54.09684
2019-02-14 03:30:00+00:00,291.9014,-0.1,12.89,47.84626,-54.09684
2019-02-14 03:40:00+00:00,296.5947,-0.1,12.89,47.84626,-54.09684
2019-02-14 03:50:00+00:00,303.4048,-0.12,12.89,47.84626,-54.09684
2019-02-14 04:00:00+00:00,311.173,-0.2,12.81,47.84626,-54.09684
2019-02-14 04:10:00+00:00,305.1964,-0.21,12.73,47.84626,-54.09684
2019-02-14 04:20:00+00:00,302.5181,-0.3,12.81,47.84626,-54.09684
2019-02-14 04:30:00+00:00,304.0813,-0.3,12.81,47.84626,-54.09684
2019-02-14 04:40:00+00:00,313.7263,-0.3,12.89,47.84626,-54.09684
2019-02-14 04:50:00+00:00,320.273,-0.31,12.89,47.84626,-54.09684
2019-02-14 05:00:00+00:00,322.5547,-0.5,12.81,47.84626,-54.09684
2019-02-14 05:10:00+00:00,327.7496,-0.65,12.73,47.84626,-54.09684
2019-02-14 05:20:00+00:00,344.7996,-0.48,12.81,47.84626,-54.09684
2019-02-14 05:30:00+00:00,350.2079,-0.3,12.81,47.84626,-54.09684
2019-02-14 05:40:00+00:00,346.718,-0.4,12.81,47.84626,-54.09684
2019-02-14 05:50:00+00:00,350.8079,-0.4,12.81,47.84626,-54.09684
2019-02-14 06:00:00+00:00,357.7362,-0.33,12.73,47.84626,-54.09684
2019-02-14 06:10:00+00:00,350.3313,-0.5,12.73,47.84626,-54.09684
2019-02-14 06:20:00+00:00,346.1963,-0.6,12.81,47.84626,-54.09684
2019-02-14 06:30:00+00:00,357.5113,-0.6,12.81,47.84626,-54.09684
2019-02-14 06:40:00+00:00,366.4679,-0.5,12.81,47.84626,-54.09684
2019-02-14 06:50:00+00:00,358.5112,-0.5,12.81,47.84626,-54.09684
2019-02-14 07:00:00+00:00,359.8612,-0.5,12.73,47.84626,-54.09684
2019-02-14 07:10:00+00:00,366.2812,-0.47,12.65,47.84626,-54.09684
2019-02-14 07:20:00+00:00,359.5247,-0.43,12.81,47.84626,-54.09684
2019-02-14 07:30:00+00:00,348.0013,-0.5,12.81,47.84626,-54.09684
2019-02-14 07:40:00+00:00,346.0829,-0.5,12.81,47.84626,-54.09684
2019-02-14 07:50:00+00:00,349.5529,-0.48,12.81,47.84626,-54.09684
2019-02-14 08:00:00+00:00,347.293,-0.4,12.73,47.84626,-54.09684
2019-02-14 08:10:00+00:00,341.568,-0.4,12.65,47.84626,-54.09684
2019-02-14 08:20:00+00:00,328.7529,-0.42,12.73,47.84626,-54.09684
2019-02-14 08:30:00+00:00,314.0812,-0.5,12.81,47.84626,-54.09684
2019-02-14 08:40:00+00:00,312.983,-0.5,12.81,47.84626,-54.09684
2019-02-14 08:50:00+00:00,313.1681,-0.5,12.81,47.84626,-54.09684
2019-02-14 09:00:00+00:00,299.343,-0.6,12.73,47.84626,-54.09684
2019-02-14 09:10:00+00:00,287.5247,-0.6,12.65,47.84626,-54.09684
2019-02-14 09:20:00+00:00,284.8081,-0.6,12.73,47.84626,-54.09684
2019-02-14 09:30:00+00:00,282.118,-0.6,12.73,47.84626,-54.09684
2019-02-14 09:40:00+00:00,277.4414,-0.7,12.81,47.84626,-54.09684
2019-02-14 09:50:00+00:00,276.5697,-0.71,12.81,47.84626,-54.09684
2019-02-14 10:00:00+00:00,277.2764,-0.71,12.73,47.84626,-54.09684
2019-02-14 10:10:00+00:00,265.863,-0.68,12.65,47.84626,-54.09684
2019-02-14 10:20:00+00:00,260.5798,-0.58,12.73,47.84626,-54.09684
2019-02-14 10:30:00+00:00,265.3847,-0.5,12.73,47.84626,-54.09684
2019-02-14 10:40:00+00:00,265.9181,-0.5,12.81,47.84626,-54.09684
2019-02-14 10:50:00+00:00,254.3664,-0.5,12.81,47.84626,-54.09684
2019-02-14 11:00:00+00:00,253.1847,-0.5,12.73,47.84626,-54.09684
2019-02-14 11:10:00+00:00,262.2115,-0.5,12.65,47.84626,-54.09684
2019-02-14 11:20:00+00:00,259.0364,-0.5,12.73,47.84626,-54.09684
2019-02-14 11:30:00+00:00,250.9464,-0.5,12.73,47.84626,-54.09684
2019-02-14 11:40:00+00:00,248.8131,-0.5,12.81,47.84626,-54.09684
2019-02-14 11:50:00+00:00,252.2697,-0.5,12.81,47.84626,-54.09684
2019-02-14 12:00:00+00:00,245.1531,-0.44,12.73,47.84626,-54.09684
2019-02-14 12:10:00+00:00,245.8581,-0.43,12.65,47.84626,-54.09684
2019-02-14 12:20:00+00:00,253.5448,-0.41,12.81,47.84626,-54.09684
2019-02-14 12:30:00+00:00,250.8897,-0.4,12.81,47.84626,-54.09684
2019-02-14 12:40:00+00:00,235.9564,-0.4,12.81,47.84626,-54.09684
2019-02-14 12:50:00+00:00,244.0547,-0.41,12.89,47.84626,-54.09684
2019-02-14 13:00:00+00:00,260.5164,-0.4,12.81,47.84626,-54.09684
2019-02-14 13:10:00+00:00,245.7947,-0.41,12.65,47.84626,-54.09684
2019-02-14 13:20:00+00:00,234.3147,-0.43,12.89,47.84626,-54.09684
2019-02-14 13:30:00+00:00,242.9147,-0.44,13.05,47.84626,-54.09684
2019-02-14 13:40:00+00:00,241.5614,-0.45,13.37,47.84626,-54.09684
2019-02-14 13:50:00+00:00,236.0097,-0.44,15.51,47.84626,-54.09684
2019-02-14 14:00:00+00:00,239.8897,-0.44,16.15,47.84626,-54.09684
2019-02-14 14:10:00+00:00,251.2364,-0.4,14.48,47.84626,-54.09684
2019-02-14 14:20:00+00:00,252.7097,-0.4,14.64,47.84626,-54.09684
2019-02-14 14:30:00+00:00,255.0364,-0.34,15.35,47.84626,-54.09684
2019-02-14 14:40:00+00:00,262.3164,-0.31,14.64,47.84626,-54.09684
2019-02-14 14:50:00+00:00,266.6464,-0.3,14.48,47.84626,-54.09684
2019-02-14 15:00:00+00:00,267.3947,-0.3,14.48,47.84626,-54.09684
2019-02-14 15:10:00+00:00,268.2114,-0.3,15.6,47.84626,-54.09684
2019-02-14 15:20:00+00:00,273.4448,-0.3,14.88,47.84626,-54.09684
2019-02-14 15:30:00+00:00,276.3163,-0.3,14.88,47.84626,-54.09684
2019-02-14 15:40:00+00:00,279.713,-0.3,14.8,47.84626,-54.09684
2019-02-14 15:50:00+00:00,282.0464,-0.22,14.64,47.84626,-54.09684
2019-02-14 16:00:00+00:00,292.4348,-0.2,14.48,47.84626,-54.09684
2019-02-14 16:10:00+00:00,296.2531,-0.2,14.24,47.84626,-54.09684
2019-02-14 16:20:00+00:00,298.5464,-0.2,14.24,47.84626,-54.09684
2019-02-14 16:30:00+00:00,299.1463,-0.2,14.24,47.84626,-54.09684
2019-02-14 16:40:00+00:00,304.4763,-0.2,14.32,47.84626,-54.09684
2019-02-14 16:50:00+00:00,305.4663,-0.2,14.64,47.84626,-54.09684
2019-02-14 17:00:00+00:00,307.6964,-0.2,14.88,47.84626,-54.09684
2019-02-14 17:10:00+00:00,308.4564,-0.2,15.04,47.84626,-54.09684
2019-02-14 17:20:00+00:00,314.088,-0.2,15.04,47.84626,-54.09684
2019-02-14 17:30:00+00:00,310.9014,-0.2,14.96,47.84626,-54.09684
2019-02-14 17:40:00+00:00,310.3547,-0.2,14.96,47.84626,-54.09684
2019-02-14 17:50:00+00:00,310.2463,-0.2,14.88,47.84626,-54.09684
2019-02-14 18:00:00+00:00,318.5563,-0.2,14.48,47.84626,-54.09684
2019-02-14 18:10:00+00:00,316.4363,-0.2,14.24,47.84626,-54.09684
2019-02-14 18:20:00+00:00,314.7313,-0.2,14.24,47.84626,-54.09684
2019-02-14 18:30:00+00:00,318.903,-0.2,14.16,47.84626,-54.09684
2019-02-14 18:40:00+00:00,319.193,-0.2,14.16,47.84626,-54.09684
2019-02-14 18:50:00+00:00,324.0013,-0.2,14.16,47.84626,-54.09684
2019-02-14 19:00:00+00:00,326.6046,-0.2,14.08,47.84626,-54.09684
2019-02-14 19:10:00+00:00,324.6663,-0.19,13.84,47.84626,-54.09684
2019-02-14 19:20:00+00:00,318.8697,-0.18,13.84,47.84626,-54.09684
2019-02-14 19:30:00+00:00,320.1113,-0.18,13.76,47.84626,-54.09684
2019-02-14 19:40:00+00:00,318.5813,-0.18,13.68,47.84626,-54.09684
2019-02-14 19:50:00+00:00,306.5613,-0.19,13.68,47.84626,-54.09684
2019-02-14 20:00:00+00:00,301.0914,-0.18,13.53,47.84626,-54.09684
2019-02-14 20:10:00+00:00,307.4697,-0.19,13.37,47.84626,-54.09684
2019-02-14 20:20:00+00:00,307.948,-0.2,13.37,47.84626,-54.09684
2019-02-14 20:30:00+00:00,294.0464,-0.2,13.29,47.84626,-54.09684
2019-02-14 20:40:00+00:00,290.7997,-0.2,13.29,47.84626,-54.09684
2019-02-14 20:50:00+00:00,298.9064,-0.2,13.29,47.84626,-54.09684
2019-02-14 21:00:00+00:00,289.5096,-0.2,13.21,47.84626,-54.09684
2019-02-14 21:10:00+00:00,274.3647,-0.2,13.05,47.84626,-54.09684
2019-02-14 21:20:00+00:00,279.4481,-0.2,13.05,47.84626,-54.09684
2019-02-14 21:30:00+00:00,284.9498,-0.2,13.05,47.84626,-54.09684
2019-02-14 21:40:00+00:00,272.2814,-0.2,13.05,47.84626,-54.09684
2019-02-14 21:50:00+00:00,267.0081,-0.2,13.05,47.84626,-54.09684
2019-02-14 22:00:00+00:00,284.498,-0.2,12.97,47.84626,-54.09684
2019-02-14 22:10:00+00:00,279.1281,-0.2,12.89,47.84626,-54.09684
2019-02-14 22:20:00+00:00,260.0497,-0.2,12.97,47.84626,-54.09684
2019-02-14 22:30:00+00:00,264.2197,-0.2,12.97,47.84626,-54.09684
2019-02-14 22:40:00+00:00,273.9415,-0.2,13.05,47.84626,-54.09684
2019-02-14 22:50:00+00:00,260.4498,-0.2,13.05,47.84626,-54.09684
2019-02-14 23:00:00+00:00,245.8431,-0.2,12.97,47.84626,-54.09684
2019-02-14 23:10:00+00:00,253.8564,-0.2,12.89,47.84626,-54.09684
2019-02-14 23:20:00+00:00,261.3148,-0.2,12.97,47.84626,-54.09684
2019-02-14 23:30:00+00:00,255.1181,-0.2,12.97,47.84626,-54.09684
2019-02-14 23:40:00+00:00,257.1931,-0.2,12.97,47.84626,-54.09684
2019-02-14 23:50:00+00:00,259.3631,-0.2,12.97,47.84626,-54.09684
